Location: Gettysburg
(39.8310°N, 77.2310°W)
Time: 03:16:15
(UTC-04:00)

ATLAS 2AS CENTAUR R/B - Visible Passes

Search period start: 18 April 2015 00:00
Search period end: 28 April 2015 00:00
Orbit: 915 x 1298 km, 63.7° (Epoch: 30 March)

Date Brightness Start Highest point End Pass type
(mag) Time Alt. Az. Time Alt. Az. Time Alt. Az.
18 Apr 4.4 04:46:13 10° SSE 04:52:12 31° ESE 04:58:48 10° NE visible
19 Apr 5.0 04:03:21 10° SE 04:07:50 19° ESE 04:12:56 10° ENE visible
19 Apr 3.0 05:50:42 10° SW 05:57:55 85° WNW 06:05:51 10° NNE visible
20 Apr 3.3 05:06:10 10° SSW 05:13:13 64° ESE 05:20:57 10° NE visible
21 Apr 3.9 04:22:57 14° S 04:28:40 41° ESE 04:35:50 10° NE visible
22 Apr 4.5 03:40:02 15° SSE 03:44:14 25° ESE 03:50:21 10° NE visible
22 Apr 3.0 05:27:30 10° SW 05:34:38 68° NW 05:42:31 10° NNE visible
23 Apr 4.9 02:57:03 11° SE 02:59:55 15° ESE 03:04:00 10° ENE visible
23 Apr 3.0 04:44:31 20° SSW 04:49:49 82° ESE 04:57:42 10° NE visible
24 Apr 3.4 04:01:28 28° S 04:05:10 54° ESE 04:12:44 10° NE visible
24 Apr 3.7 05:49:41 10° WSW 05:56:32 38° NW 06:03:48 10° NNE visible
25 Apr 4.0 03:18:21 28° SE 03:20:41 34° ESE 03:27:29 10° NE visible
25 Apr 3.3 05:05:48 18° WSW 05:11:24 55° NW 05:19:09 10° NNE visible
26 Apr 4.5 02:35:10 20° ESE 02:36:18 21° ESE 02:41:45 10° ENE visible
26 Apr 2.9 04:22:37 32° SW 04:26:28 80° NW 04:34:24 10° NNE visible
27 Apr 5.0 01:51:57 11° ESE 01:52:00 11° ESE 01:54:26 10° E visible
27 Apr 3.0 03:39:24 46° S 03:41:44 70° ESE 03:49:32 10° NE visible
27 Apr 4.0 05:26:54 10° W 05:33:30 32° NW 05:40:23 10° NNE visible
